Regional Weather Roundup
Issued by NWS

Home | Current Version | Previous Version | Text Only | Print | Product List | Glossary On
Versions: 1 2 3 4 5 6 7 8 9 10 11 12 13 14 15 16 17 18 19 20 21 22 23 24 25 26 27 28
000
ASUS45 KSLC 161010
RWRUT

UTAH REGIONAL WEATHER ROUNDUP
NATIONAL WEATHER SERVICE SALT LAKE CITY UT
400 AM MDT WED APR 16 2014

UTZ001>011-023>025-161100-

NORTHERN UTAH

CITY           SKY/WX    TMP DP  RH WIND       PRES   REMARKS
HILL AFB         N/A     43  14  31 E1        29.98R
LOGAN          CLEAR     35  21  56 N9        29.97R WCI  28
OGDEN            N/A     44  18  35 N5        29.97R
PROVO AIRPORT    N/A     46  25  42 NW16      29.98R
SALT LAKE CITY MOCLDY    45  21  38 W5        29.98R
VERNAL         CLOUDY    41  11  29 VRB3      29.87R
WENDOVER       MOCLDY    46  16  29 N10       30.02R
HEBER CITY       N/A     41  12  30 N7        29.97R
WEST JORDAN    CLEAR     43  25  49 W7        29.99R

$$

UTZ012>022-026-027-161100-

SOUTHERN UTAH

CITY           SKY/WX    TMP DP  RH WIND       PRES   REMARKS
BRYCE CANYON     N/A     28   9  44 W8        29.97F WCI  20
CEDAR CITY       N/A     36   9  32 CALM      29.93S
MILFORD          N/A     47  23  38 N15       29.92S
MOAB/CYNLANDS  CLEAR     40  17  39 CALM      29.82R
PRICE            N/A     45   6  20 NW7       29.86R
ST GEORGE        N/A     54  10  17 SW3       29.84S

$$

REGIONAL REPORTS     COLORADO/ARIZONA

CITY           SKY/WX    TMP DP  RH WIND       PRES   REMARKS
CRAIG, CO      CLOUDY    38  16  40 W10       29.92R WCI  31
GRAND JUNCTION PTCLDY    41  28  60 VRB5      29.83S
RIFLE          MOCLDY    46  23  40 NW5       29.85R
MONTROSE       MOCLDY    42  26  53 CALM      29.87R
CORTEZ         CLEAR     28  15  58 E7        29.88S WCI  21
PAGE, AZ         N/A     59   3  10 N8        29.85R
GRAND CANYON     N/A     24  -2  32 CALM      29.98F
KINGMAN          N/A     49   3  15 E7        29.84F
FLAGSTAFF        N/A     29   5  36 CALM      29.99S

$$

REGIONAL REPORTS    NEVADA/IDAHO/WYOMING

CITY           SKY/WX    TMP DP  RH WIND       PRES   REMARKS
LAS VEGAS, NV    N/A     63  19  18 SW3       29.72S
ELY            MOCLDY    31  19  61 S7        29.98R WCI  24
ELKO           MOCLDY    40  18  41 SE6       29.99S
POCATELLO, ID  CLEAR     32  18  56 E5        30.01S WCI  27
BURLEY           N/A     39  21  48 W7        29.98F WCI  34
EVANSTON, WY   MOCLDY    31  12  45 W10       29.97R WCI  22
ROCK SPRINGS   CLEAR     29  17  61 W8        29.93R WCI  21

$$



USA.gov is the U.S. government's official web portal to all federal, state and local government web resources and services.